Location: Argonnex
(45.9500°N, 6.1333°E)
Time: 17:20:28
(UTC+00:00)

Cosmos 1140 Rocket - Visible Passes

Search period start: 30 September 2023 00:00
Search period end: 10 October 2023 00:00
Orbit: 742 x 766 km, 74.1° (Epoch: 29 September)

Date Brightness Start Highest point End Pass type
(mag) Time Alt. Az. Time Alt. Az. Time Alt. Az.
30 Sep 6.0 04:30:30 10° N 04:34:42 24° NE 04:38:52 10° ESE visible
30 Sep 5.6 19:16:28 12° NE 19:16:28 12° NE 19:16:50 10° NE visible
30 Sep 5.5 20:56:20 23° NNW 20:56:20 23° NNW 20:58:40 10° N visible
01 Oct 6.3 03:50:09 10° NNE 03:53:05 15° NE 03:56:00 10° E visible
01 Oct 5.4 18:34:14 12° ENE 18:34:14 12° ENE 18:34:55 10° NE visible
01 Oct 4.3 20:07:31 10° SW 20:13:59 44° N 20:17:43 10° NNE visible
01 Oct 6.5 21:54:12 10° WNW 21:55:32 11° NW 21:56:52 10° NNW visible
02 Oct 4.7 04:49:22 10° NNW 04:54:27 48° ENE 04:59:30 10° SE visible
02 Oct 3.3 19:26:16 10° SSW 19:31:23 79° ESE 19:36:36 10° NNE visible
02 Oct 6.0 21:10:23 10° W 21:13:49 18° NW 21:17:16 10° N visible
03 Oct 5.6 04:08:32 10° N 04:13:03 28° ENE 04:17:34 10° ESE visible
03 Oct 3.7 18:45:30 10° S 18:50:20 43° ESE 18:55:14 10° NNE visible
03 Oct 5.3 20:27:50 10° WSW 20:32:15 28° WNW 20:36:44 10° N visible
04 Oct 6.3 03:27:58 10° N 03:31:31 18° NE 03:35:02 10° E visible
04 Oct 4.4 18:05:21 10° SSE 18:09:25 24° E 18:13:31 10° NE visible
04 Oct 4.4 19:45:54 10° SW 19:50:51 47° WNW 19:55:53 10° NNE visible
05 Oct 6.6 02:48:16 10° NNE 02:49:47 11° NE 02:51:18 10° ENE visible
05 Oct 4.1 04:27:32 10° NNW 04:32:44 60° ENE 04:37:53 10° SE visible
05 Oct 3.5 19:04:26 10° SSW 19:09:35 83° WNW 19:14:49 10° NNE visible
05 Oct 6.3 20:49:23 10° W 20:52:14 15° NW 20:55:05 10° NNW visible
06 Oct 5.2 03:46:35 10° N 03:51:23 35° ENE 03:56:09 10° SE visible
06 Oct 3.5 18:23:28 10° S 18:28:29 55° ESE 18:33:33 10° NNE visible
06 Oct 5.7 20:06:30 10° WSW 20:10:36 23° NW 20:14:44 10° N visible
07 Oct 5.9 03:05:53 10° N 03:09:54 21° NE 03:13:52 10° ESE visible
07 Oct 3.5 04:46:55 10° NNW 04:52:07 63° WSW 04:57:16 10° S visible
07 Oct 4.2 17:43:03 10° SSE 17:47:30 30° E 17:52:00 10° NE visible
07 Oct 4.9 19:24:20 10° SW 19:29:07 38° WNW 19:34:00 10° N visible
08 Oct 6.5 02:25:40 10° NNE 02:28:14 13° NE 02:30:48 10° ENE visible
08 Oct 3.7 04:05:42 10° NNW 04:10:58 75° ENE 04:16:12 10° SSE visible
08 Oct 3.8 18:42:41 10° SSW 18:47:49 67° WNW 18:53:01 10° NNE visible
08 Oct 6.5 20:28:39 10° WNW 20:30:39 12° NW 20:32:41 10° NNW visible
09 Oct 4.7 03:24:40 10° N 03:29:40 43° ENE 03:34:39 10° SE visible
09 Oct 4.4 05:06:50 10° NW 05:11:13 28° W 05:15:35 10° SSW visible
09 Oct 3.4 18:01:31 10° S 18:06:38 70° ESE 18:11:49 10° NNE visible
09 Oct 6.0 19:45:16 10° W 19:48:57 19° NW 19:52:42 10° N visible
